ZL1TQN Weather Reports


Display with metric or nautical units.
time (UTC)temp
F
wind
direction
speed
MPH
gust
MPH
rain 1hr
in
rain 24hr
in
rain mn
in
humidity
%
barometer
mb
20260904142005 56 261 2.0 3.0 0.00 0.11 0.00 74 1018.0
20260904141505 56 260 2.0 3.0 0.00 0.11 0.00 74 1018.0
20260904140005 56 259 2.0 5.0 0.00 0.11 0.00 74 1018.0
20260904135505 56 282 1.0 5.0 0.00 0.11 0.00 74 1018.0
20260904135005 56 262 3.0 3.0 0.00 0.11 0.00 74 1018.0
20260904134505 56 261 2.0 3.0 0.00 0.11 0.00 74 1018.0
20260904133505 56 206 0.0 0.0 0.00 0.11 0.00 74 1018.0
20260904133005 56 187 0.0 0.0 0.00 0.11 0.00 74 1018.0
20260904132006 56 271 0.0 0.0 0.00 0.11 0.00 74 1018.0
20260904131504 56 249 0.0 0.0 0.00 0.11 0.00 74 1018.0
20260904131005 56 164 0.0 0.0 0.00 0.11 0.00 74 1018.0
20260904125506 56 141 0.0 0.0 0.00 0.11 0.00 74 1018.0
20260904125006 56 91 0.0 0.0 0.00 0.11 0.00 74 1018.0
20260904124505 56 74 0.0 0.0 0.00 0.11 0.00 74 1018.0
20260904124006 56 74 0.0 0.0 0.00 0.11 0.00 74 1018.0
20260904123505 56 71 0.0 0.0 0.00 0.11 0.00 74 1018.0
20260904123006 56 334 0.0 3.0 0.00 0.11 0.00 74 1018.0
20260904122505 56 322 0.0 3.0 0.00 0.11 0.00 74 1018.0
20260904122005 56 323 1.0 5.0 0.00 0.11 0.00 74 1018.0
20260904121505 56 290 1.0 5.0 0.00 0.11 0.00 74 1018.0
20260904120006 56 269 2.0 3.0 0.00 0.11 0.00 74 1018.0
20260904115505 56 306 1.0 3.0 0.00 0.11 0.13 74 1018.0
20260904115005 56 276 1.0 3.0 0.00 0.11 0.13 74 1018.0
20260904114005 56 273 0.0 2.0 0.00 0.11 0.13 74 1018.0
20260904113505 56 273 0.0 3.0 0.00 0.11 0.13 74 1018.0
20260904113005 56 272 1.0 3.0 0.00 0.11 0.13 74 1018.0
20260904112505 56 270 2.0 3.0 0.00 0.11 0.13 74 1018.0
20260904112005 56 302 1.0 2.0 0.00 0.11 0.13 74 1018.0
20260904111504 56 293 1.0 2.0 0.00 0.11 0.13 74 1018.0
20260904111005 56 226 1.0 2.0 0.00 0.11 0.13 74 1018.0
20260904110005 56 200 1.0 2.0 0.00 0.11 0.13 74 1018.0
20260904105505 56 207 0.0 0.0 0.00 0.11 0.13 74 1018.0
20260904104505 56 247 0.0 3.0 0.00 0.11 0.13 74 1018.0
20260904104004 56 258 0.0 3.0 0.00 0.11 0.13 74 1018.0
20260904102505 56 228 2.0 5.0 0.00 0.11 0.13 74 1018.0
20260904102005 56 257 3.0 5.0 0.00 0.11 0.13 74 1018.0
20260904101505 56 247 3.0 5.0 0.00 0.11 0.13 74 1018.0
20260904101005 56 238 2.0 3.0 0.00 0.11 0.13 74 1018.0
20260904100005 56 238 1.0 5.0 0.00 0.11 0.13 74 1018.0
20260904095005 56 304 3.0 10.0 0.00 0.11 0.13 74 1018.0
20260904094005 56 253 6.0 12.0 0.00 0.11 0.13 74 1018.0
20260904093505 56 262 6.0 12.0 0.00 0.11 0.13 74 1018.0
20260904093005 56 276 6.0 12.0 0.00 0.11 0.13 74 1018.0
20260904092505 56 259 6.0 12.0 0.00 0.11 0.13 74 1018.0
20260904092005 56 276 5.0 14.0 0.00 0.11 0.13 74 1018.0
20260904091504 56 279 7.0 14.0 0.00 0.11 0.13 74 1018.0
20260904091005 56 267 6.0 12.0 0.00 0.11 0.13 74 1018.0
20260904090005 56 269 5.0 16.0 0.00 0.11 0.13 74 1018.0
20260904084504 56 264 5.0 13.0 0.00 0.11 0.13 74 1018.0
20260904083504 56 256 6.0 13.0 0.00 0.11 0.13 74 1018.0
20260904083005 56 277 5.0 13.0 0.00 0.11 0.13 74 1018.0
20260904082505 56 267 6.0 13.0 0.00 0.11 0.13 74 1018.0
20260904082006 56 275 6.0 13.0 0.00 0.11 0.13 74 1018.0
20260904081506 56 267 6.0 12.0 0.00 0.11 0.13 74 1018.0
20260904081006 56 276 6.0 12.0 0.00 0.11 0.13 74 1018.0
20260904080006 56 287 6.0 12.0 0.00 0.11 0.13 74 1018.0
20260904075506 56 271 5.0 10.0 0.00 0.11 0.13 74 1018.0
20260904075005 56 265 6.0 9.0 0.00 0.11 0.13 74 1018.0
20260904074506 56 243 4.0 7.0 0.00 0.11 0.13 74 1018.0
20260904074006 56 271 2.0 9.0 0.00 0.11 0.13 74 1018.0
20260904073506 56 277 2.0 14.0 0.00 0.11 0.13 74 1018.0
20260904072506 56 258 4.0 17.0 0.00 0.11 0.13 74 1018.0
20260904071506 56 267 4.0 10.0 0.00 0.11 0.13 74 1018.0
20260904071006 56 266 5.0 10.0 0.00 0.11 0.13 74 1018.0
20260904070006 56 265 6.0 12.0 0.00 0.11 0.13 74 1018.0
20260904065506 56 245 3.0 12.0 0.00 0.11 0.13 74 1018.0
20260904065006 56 268 5.0 12.0 0.00 0.11 0.13 74 1018.0
20260904064506 56 253 3.0 7.0 0.00 0.11 0.13 74 1018.0
20260904064006 56 249 2.0 6.0 0.01 0.11 0.13 74 1018.0
20260904063006 56 250 3.0 6.0 0.04 0.11 0.13 74 1018.0
20260904062506 56 256 2.0 3.0 0.05 0.11 0.13 74 1018.0
20260904062006 56 253 2.0 3.0 0.05 0.11 0.13 74 1018.0
20260904061506 56 227 2.0 3.0 0.05 0.11 0.13 74 1018.0
20260904061006 56 240 2.0 3.0 0.06 0.11 0.13 74 1018.0
20260904060005 56 208 2.0 3.0 0.06 0.11 0.13 74 1018.0
20260904055506 56 275 2.0 3.0 0.06 0.11 0.13 74 1018.0
20260904055006 56 297 1.0 5.0 0.07 0.11 0.13 74 1018.0
20260904054506 56 281 1.0 5.0 0.08 0.11 0.13 74 1018.0
20260904054007 56 234 2.0 5.0 0.07 0.10 0.13 74 1018.0
20260904053505 56 255 2.0 6.0 0.06 0.09 0.11 74 1018.0
20260904053005 56 195 2.0 6.0 0.05 0.07 0.09 74 1018.0
20260904052005 56 215 1.0 10.0 0.05 0.06 0.09 74 1018.0
20260904050006 56 290 2.0 6.0 0.06 0.06 0.08 74 1018.0
20260904045506 56 276 2.0 9.0 0.05 0.05 0.07 74 1018.0
20260904045005 56 254 3.0 9.0 0.04 0.04 0.06 74 1018.0
20260904044505 56 273 5.0 7.0 0.03 0.03 0.06 74 1018.0
20260904044007 56 313 3.0 5.0 0.03 0.03 0.06 74 1018.0
20260904042506 56 292 5.0 12.0 0.02 0.02 0.04 74 1018.0
20260904042005 56 311 5.0 13.0 0.02 0.02 0.04 74 1018.0
20260904041506 56 306 6.0 13.0 0.01 0.01 0.03 74 1018.0
20260904041007 56 296 5.0 12.0 0.01 0.01 0.03 74 1018.0
20260904040005 56 278 6.0 12.0 0.00 0.00 0.02 74 1018.0
20260904035506 56 279 5.0 12.0 0.00 0.00 0.02 74 1018.0
20260904035006 56 306 3.0 12.0 0.00 0.00 0.02 74 1018.0
20260904034506 56 299 3.0 13.0 0.00 0.00 0.02 74 1018.0
20260904034006 56 298 5.0 13.0 0.00 0.00 0.02 74 1018.0
20260904033505 56 304 4.0 12.0 0.00 0.00 0.02 74 1018.0
20260904033006 56 278 6.0 12.0 0.00 0.00 0.02 74 1018.0
20260904032506 56 283 5.0 15.0 0.00 0.00 0.02 74 1018.0
20260904030006 56 301 10.0 18.0 0.01 0.00 0.02 74 1018.0
20260904025505 56 300 7.0 20.0 0.01 0.00 0.02 74 1018.0
20260904025005 56 314 10.0 20.0 0.01 0.00 0.02 74 1018.0
20260904024506 56 300 7.0 20.0 0.01 0.00 0.02 74 1018.0
20260904024006 56 299 7.0 20.0 0.01 0.00 0.02 74 1018.0